SKYSAT C2

导读

SKYSAT C2是美国发射的高分辨率光学遥感卫星,于2016年9月16日顺利进入太空。该卫星隶属于SkySat系列卫星星座,具备获取亚米级分辨率地球影像的能力,可广泛应用于地图绘制、城市规划、灾害监测、资源勘探及环境变化观测等多个领域,为全球地理信息获取与科研研究提供了高质量的遥感数据支撑。

基本信息
目录编号:
41773
目录名称:
SKYSAT C2
国际标识:
2016-058D
轨道中心:
EARTH
卫星名称:
SKYSAT C2
卫星全名:
--
卫星状态:
在轨 (已飞行3601 天)
发射日期:
2016-09-16 UTC
国别 :
美国 (US)
星等 :
--
轨道信息
数据来源 国际轨道数据 AOE轨道数据
星历时间 2026-07-27T08:37:32+0800
21小时前
查看轨道信息
2026-07-24T03:00:00+0800
4天前
查看轨道信息
半长轴 6815.641km 6815.8km
偏心率 0.0000985 0.000001
轨道倾角 97.017° 97.016°
近地点辐角 226.715° 170.412°
升交点赤经 228.642° 225.525°
平近点角 133.401° 236.580°
近地点 436.832km 437.656km
远地点 438.176km 437.67km
周期 93.330分钟 93.333分钟
每日圈数 15.429178 15.428638
详细信息
使用方式:
暂无
2D轨道图
3D轨道图
轨道高度分析图
轨道倾角分析图
轨道综合分析图
查看轨道综合分析图